AirNav   Pilot Hours Calculator
 
 919 users online  

K91 Horton Municipal Airport
Horton, Kansas, USA

GOING TO HORTON?


FAA INFORMATION EFFECTIVE 18 JULY 2019

Location

FAA Identifier: K91
Lat/Long: 39-40-45.0070N / 095-32-00.9290W
39-40.750117N / 095-32.015483W
39.6791686 / -95.5335914
(estimated)
Elevation: 1134 ft. / 346 m (estimated)
Variation: 06E (1985)
From city: 1 mile NW of HORTON, KS
Time zone: UTC -5 (UTC -6 during Standard Time)
Zip code: 66439

Airport Operations

Airport use: Open to the public
Activation date: 07/1949
Control tower: no
ARTCC: KANSAS CITY CENTER
FSS: WICHITA FLIGHT SERVICE STATION
NOTAMs facility: ICT (NOTAM-D service available)
Attendance: UNATNDD
FOR ARPT ATTENDANT CALL 785-486-2681/2694.
Wind indicator: lighted
Segmented circle: yes

Airport Communications

CTAF: 122.9
WX AWOS-3 at K59 (18 nm E): 123.675 (913-367-1449)
WX AWOS-3PT at K83 (18 nm NW): 118.475 (785-284-2201)

Nearby radio navigation aids

VOR radial/distance  VOR name  Freq  Var
RBAr202/11.5ROBINSON VOR/DME108.2004E
TOPr356/32.5TOPEKA VORTAC117.8005E
STJr231/32.7ST JOSEPH VORTAC115.5008E

 
NDB name  Hdg/Dist  Freq  Var  ID
AMAZON243/31.323304EAZN .- --.. -.

Airport Services

Parking: tiedowns

Runway Information

Runway 17/35

Dimensions: 2223 x 100 ft. / 678 x 30 m
Surface: turf, in good condition
Runway edge markings: 17/35 BOUNDARY MARKED BY 3 X 5 YELLOW CONC PADS.
RUNWAY 17  RUNWAY 35
Traffic pattern: leftleft
Obstructions: 5 ft. fence, marked, 5 ft. from runway, 1:1 slope to clear
FENCE OBSTN MKD WITH 4 X 4 YELLOW & BLACK STRIPED BOARD.
5 ft. brush, 32 ft. from runway, 32 ft. right of centerline, 6:1 slope to clear
FENCE OBSTN MKD WITH 4 X 4 YELLOW & BLACK STRIPED BOARD.

Runway 15/33

Dimensions: 1636 x 100 ft. / 499 x 30 m
Surface: turf, in good condition
Runway edge markings: 15/33 BOUNDARY MARKED BY 3 X 5 YELLOW CONC PADS.
RUNWAY 15  RUNWAY 33
Traffic pattern: leftleft
Obstructions: 13 ft. road, 237 ft. from runway, 18:1 slope to clear
+5 FENCE 212' FROM THLD.
4 ft. fence, marked, 15 ft. from runway, 3:1 slope to clear
FENCE OBSTN MKD WITH YELLOW & BLACK STRIPED BOARD.

Airport Ownership and Management from official FAA records

Ownership: Publicly-owned
Owner: CITY OF HORTON
PO BOX 30
HORTON, KS 66439
Phone 785-486-2681
Manager: N. A.
202 E. 8TH STREET
HORTON, KS 66439
Phone 785-486-2681
KIM CLAUSEN - CITY ADMINISTRATOR.

Airport Operational Statistics

Aircraft operations: 100/year *
100% transient general aviation
* for 12-month period ending 31 August 2017

Additional Remarks

NO SNOW REMOVAL WINTER MONTHS.
NO PUBLIC PHONE OR FACILITIES AT ARPT.
+150 FT UNLGTD ANT ON WTR TWR 3684 FT SE OF AER 33.
TIEDOWN AREA & TWY UNMKD; MINIMAL MAINT; VERY ROUGH
FOR CD CTC KANSAS CITY ARTCC AT 913-254-8508.

Instrument Procedures

There are no published instrument procedures at K91.

Some nearby airports with instrument procedures:

K59 - Amelia Earhart Airport (18 nm E)
KFNB - Brenner Field Airport (24 nm N)
KSTJ - Rosecrans Memorial Airport (29 nm E)
KFLV - Sherman Army Airfield (34 nm SE)
KTOP - Philip Billard Municipal Airport (37 nm S)
 
Loc | Ops | Rwys | IFR | FBO | Links
Com | Nav | Svcs | Stats | Notes

Kansas City Aviation Department
 
Area around K91 (Horton Municipal Airport)
 
Road maps at: MapQuest Bing Google
 
Aerial photo
WARNING: Photo may not be current or correct
Aerial photo of K91 (Horton Municipal Airport)
Photo taken 18-Feb-2017
looking south.

Do you have a better or more recent aerial photo of Horton Municipal Airport that you would like to share? If so, please send us your photo.

 
Sectional chart

 
Airport distance calculator
Flying to Horton Municipal Airport? Find the distance to fly.

From to K91

Sunrise and sunset
Times for 22-Jul-2019
 Local
(UTC-5)
 Zulu
(UTC)
Morning civil twilight05:4210:42
Sunrise06:1311:13
Sunset20:4401:44
Evening civil twilight21:1502:15

Current date and time
Zulu (UTC)  22-Jul-2019 12:17:47
Local (UTC-5)  22-Jul-2019 07:17:47
 
METAR
KFNB 
23nm N 
221153Z AUTO 33004KT 10SM SCT080 19/18 A3016 RMK AO2 SLP206 70020 T01890178 10200 20183 51015
KSTJ 
29nm E 
221153Z 36007KT 10SM CLR 19/18 A3014 RMK AO2 SLP199 7//// T01940178 10211 20189 52016 $
KTOP 
37nm S 
221153Z 36008KT 10SM CLR 19/18 A3013 RMK AO2 SLP195 60000 70044 T01940178 10222 20194 53014 $
KLWC 
42nm S 
221152Z AUTO 35008KT 10SM CLR 20/17 A3011 RMK AO2 SLP190 70078 T02000172 10222 20194 53016
KMCI 
43nm SE 
221153Z 01010KT 10SM FEW200 19/17 A3011 RMK AO2 SLP188 70021 T01890172 10211 20183 53017
KFOE 
45nm S 
221153Z 36009KT 10SM CLR 19/17 A3012 RMK AO2 SLP193 60001 70064 T01940172 10222 20194 53013
TAF
KSTJ 
29nm E 
221120Z 2212/2312 36006KT P6SM SCT100 FM221800 36014G24KT P6SM SCT050 FM230000 36009KT P6SM SKC
NOTAMs
Click for the latest NOTAMs
NOTAMs are issued by the DoD/FAA and will open in a separate window not controlled by AirNav.

 

 
 

Would you like to see your business listed on this page?

 If your business provides an interesting product or service to pilots, flight crews, aircraft, or users of the Horton Municipal Airport, you should consider listing it here.  To start the listing process, click on the button below
 
Add a business
 

Other Pages about Horton Municipal Airport

Update a link
 
Copyright © AirNav, LLC. All rights reserved. Privacy Policy  Contact